Weather in Nuweiba

Egypt     29°01′01″N   34°40′07″E
temp.,
°C
wind,
m/s
gust,
m/s
humid.,
%
clouds,
%
prec.,
mm/h
press.,
hPa
HPBL,
m
26 june, sun
sun2623:00+27nne45600 0.0 100885
02:00+26n56640 0.0 1009251
05:00+25n46670 0.0 1009566
08:00+26nne56570 0.0 1010644
11:00+27ne45480 0.0 1009360
14:00+29ne34410 0.0 1006353
17:00+32nne78380 0.0 1005552
20:00+30nne33430 0.0 100720
27 june, mon
mon2723:00+28nne45500 0.0 100842
02:00+27n45500 0.0 100856
05:00+26n34470 0.0 100949
08:00+28nne34440 0.0 1009256
11:00+28ne34400 0.0 1008366
14:00+30ne34370 0.0 1006405
17:00+33nne56350 0.0 1004722
20:00+31n45390 0.0 100562
28 june, tue
tue2823:00+28nne45530 0.0 100643
02:00+27nne33590 0.0 100737
05:00+26nne33600 0.0 100735
08:00+28nne44540 0.0 1007261
11:00+28ne44480 0.0 1005353
14:00+30ene22420 0.0 1003256
17:00+31ene13430 0.0 1003298
20:00+31nne34360 0.0 100421
29 june, wed
wed2923:00+29nne44440 0.0 100529
02:00+28nne33580 0.0 100528
05:00+27nne33570 0.0 100631
08:00+28nne44510 0.0 1006276
11:00+29nne33450 0.0 1005322
14:00+30ene22430 0.0 1003272
17:00+31sw11440 0.0 1002176
20:00+29wsw11490 0.0 100411
30 june, thu
thu3023:00+29ne56500 0.0 100553
02:00+28ne34560 0.0 100537
05:00+27ne34560 0.0 100638
08:00+28ne33510 0.0 1006252
11:00+28nne33460 0.0 1006328
14:00+30ne23420 0.0 1003274
17:00+32nne34390 0.0 1002271
20:00+31ne22460 0.0 100415